Overview Statistics Trail Chart Weather Telemetry Raw packets
 

This is the latest recevied weather packets stored in our database for station/object K4KMJ. If no packets are shown the sender has not sent any weather packets the latest 10 day(s).

<< 4 5 6 7 8 9 10 >>
Time Temp. Humidity Pressure Rain* Wind** Luminosity Snow
1788633303 33.89° C 70% 1014.8 hPa 0 mm - 731 W/m² -
1788632997 34.44° C 71% 1014.8 hPa 0 mm - 682 W/m² -
1788632697 33.89° C 72% 1014.7 hPa 0 mm - 672 W/m² -
1788632392 33.89° C 72% 1014.6 hPa 0 mm - 667 W/m² -
1788632087 33.33° C 71% 1014.6 hPa 0 mm - 260 W/m² -
1788631786 33.89° C 72% 1014.6 hPa 0 mm - 669 W/m² -
1788631481 33.33° C 72% 1014.7 hPa 0 mm - 668 W/m² -
1788631176 33.33° C 72% 1014.7 hPa 0 mm - 673 W/m² -
1788630876 33.89° C 72% 1014.7 hPa 0 mm - 676 W/m² -
1788630571 33.33° C 73% 1015.1 hPa 0 mm - 688 W/m² -
1788630267 33.33° C 76% 1015 hPa 0 mm - 714 W/m² -
1788629962 33.33° C 75% 1015.2 hPa 0 mm - 120 W/m² -
1788629658 33.33° C 75% 1015.4 hPa 0 mm - 125 W/m² -
1788629353 32.78° C 76% 1015.4 hPa 0 mm - 901 W/m² -
1788629051 32.78° C 77% 1015.5 hPa 0 mm - 893 W/m² -
1788628747 32.78° C 76% 1015.7 hPa 0 mm - 597 W/m² -
1788628444 32.78° C 75% 1015.6 hPa 0 mm - 806 W/m² -
1788628140 32.78° C 75% 1015.6 hPa 0 mm - 739 W/m² -
1788627836 32.78° C 76% 1015.9 hPa 0 mm - 749 W/m² -
1788627535 32.22° C 79% 1015.9 hPa 0 mm - 922 W/m² -
1788627230 31.67° C 81% 1016.1 hPa 0 mm - 174 W/m² -
1788626930 32.22° C 83% 1016.1 hPa 0 mm - 160 W/m² -
1788626625 32.22° C 84% 1016.2 hPa 0 mm - 810 W/m² -
1788626320 31.67° C 87% 1016 hPa 0 mm - 638 W/m² -
1788626017 31.67° C 87% 1016.3 hPa 0 mm - 558 W/m² -

* Rain latest hour (hover to see other rain measurements)
** Current wind speed in m/s (hover to see current wind gust speed)